SCP
0 0 0 0 0 0 0 0 0 0 0 0 0 0 0 0 0 0 0 0 0 0 0 0 0 0 0 0 0 0 0 0 0 0 0 0 0 0 0 0 0 0 0
0 0 0 0 0 0 0 0 0 0 0 0 0 0 0 0 0 0 0 0 0 0 0 0 0 0 0 0 0 0 0 0 0 0 0 0 0 0 0 0 0 0 0
0 0 0 0 0 0 0 0 0 0 0 0 0 0 0 0 0 0 0 0 0 0 0 0 0 0 0 0 0 0 0 0 0 0 0 0 0 0 0 0 0 0 0
0 0 0 0 0 0 0 0 0 0 0 0 0 0 0 0 0 0 0 0 0 0 0 0 0 0 0 0 0 0 0 0 0 0 0 0 0 0 0 0 0 0 0
0 0 0 0 0 0 0 0 0 0 0 0 0 0 0 0 0 0 0 0 0 0 0 0 0 0 0 0 0 0 0 0 0 0 0 0 0 0 0 0 0 0 0
0 0 0 0 0 0 0 0 0 0 0 0 0 0 0 0 0 0 0 0 0 0 0 0 0 0 0 0 0 0 0 0 0 0 0 0 0 0 0 0 0 0 0
0 0 0 1 1 0 0 0 0 0 0 0 0 0 0 0 0 0 0 0 0 0 0 0 0 0 0 0 0 0 0 0 0 0 0 0 0 0 0 0 0 0 0
0 0 0 1 1 1 0 0 0 0 0 0 0 0 0 0 0 0 0 0 0 0 0 0 0 0 0 0 0 0 0 0 0 0 0 0 0 0 0 0 0 0 0
0 0 0 1 1 0 0 0 0 0 0 0 0 0 0 0 0 0 0 0 0 0 0 0 0 0 0 0 0 0 0 0 0 0 0 0 0 0 0 0 0 0 0
0 0 1 1 0 0 0 0 0 0 0 0 0 0 0 0 0 0 0 0 0 0 0 0 0 0 0 0 0 0 0 0 0 0 0 0 0 0 0 0 0 0 0
0 0 0 0 0 0 0 0 0 0 0 0 0 0 0 0 0 0 0 0 0 0 0 0 0 0 0 0 0 0 0 0 0 0 0 0 0 0 0 0 0 0 0
0 0 0 0 0 0 0 0 0 0 0 0 0 0 0 0 0 0 0 0 0 0 0 0 0 0 0 0 0 0 0 0 0 0 0 0 0 0 0 0 0 0 0
0 0 0 0 0 0 0 0 0 0 0 0 0 0 0 0 0 0 0 0 0 0 0 0 0 0 0 0 0 0 0 0 0 0 0 0 0 0 0 0 0 0 0
0 0 0 0 0 0 0 0 0 0 0 0 0 0 0 0 0 0 0 0 0 0 0 0 0 0 0 0 0 0 0 0 0 0 0 0 0 0 0 0 0 0 0
0 0 0 0 0 0 0 0 0 0 0 0 0 0 0 0 0 0 0 0 0 0 0 0 0 0 0 0 0 0 0 0 0 0 0 0 0 0 0 0 0 0 0
0 0 0 0 0 0 0 0 0 0 0 0 0 0 0 0 0 0 0 0 0 0 0 0 0 0 0 0 0 0 0 0 0 0 0 0 0 0 0 0 0 0 0
0 0 0 0 0 0 0 0 0 0 0 0 0 0 0 0 0 0 0 0 0 0 0 0 0 0 0 0 0 0 0 0 0 0 0 0 0 0 0 0 0 0 0
0 0 0 0 0 0 0 0 0 0 0 0 0 0 0 0 0 0 0 0 0 0 0 0 0 0 0 0 0 0 0 0 0 0 0 0 0 0 0 0 0 0 0
0 0 0 0 0 0 0 0 0 0 0 0 0 0 0 0 0 0 0 0 0 0 0 0 0 0 0 0 0 0 0 0 0 0 0 0 0 0 0 0 0 0 0
0 0 0 0 0 0 0 0 0 0 0 0 0 0 0 0 0 0 0 0 0 0 0 0 0 0 0 0 0 0 0 0 0 0 0 0 0 0 0 0 0 0 0
0 0 0 0 0 0 0 0 0 0 0 0 0 0 0 0 0 0 0 0 0 0 0 0 0 0 0 0 0 0 0 0 0 0 0 0 0 0 0 0 0 0 0
0 0 0 0 0 0 0 0 0 0 0 0 0 0 0 0 0 0 0 0 0 0 0 0 0 0 0 0 0 0 0 0 0 0 0 0 0 0 0 0 0 0 0
0 0 0 0 0 0 0 0 0 0 0 0 0 0 0 0 0 0 0 0 0 0 0 0 0 0 0 0 0 0 0 0 0 0 0 0 0 0 0 0 0 0 0
0 0 0 0 0 0 0 0 0 0 0 0 0 0 0 0 0 0 0 0 0 0 0 0 0 0 0 0 0 0 0 0 0 0 0 0 0 0 0 0 0 0 0
0 0 0 0 0 0 0 0 0 0 0 0 0 0 0 0 0 0 0 0 0 0 0 0 0 0 0 0 0 0 0 0 0 0 0 0 0 0 0 0 0 0 0
0 0 0 0 0 0 0 0 0 0 0 0 0 0 0 0 0 0 0 0 0 0 0 0 0 0 0 0 0 0 0 0 0 0 0 0 0 0 0 0 0 0 0
Wind_Speed
5 6 12 13 13 13 13 13 13 12 12 13 13 13 13 13 13 13 12 12 12 12 13 13 14 14 14 14 14 15 15 15 15 14 14 13 13 14 14 14 12 8 15
8 8 13 13 13 13 13 12 12 12 12 12 12 13 13 13 13 12 12 12 12 12 13 13 14 14 14 14 14 14 15 14 15 14 12 10 11 13 14 13 12 9 14
9 9 11 14 13 13 13 12 12 12 12 12 12 12 12 12 12 12 12 11 11 12 13 13 13 13 13 13 13 13 14 14 13 13 11 6 7 12 12 12 13 13 14
9 8 9 14 13 13 12 12 12 11 11 11 11 11 12 12 11 11 11 11 12 12 12 13 13 12 13 13 12 12 13 13 12 11 6 4 4 10 12 12 13 13 13
8 7 9 14 13 13 12 12 12 11 11 10 11 11 11 11 11 11 11 11 11 11 12 12 12 12 12 12 12 12 12 12 11 8 5 4 4 9 12 12 12 12 12
7 7 9 13 13 12 12 12 12 11 11 10 10 10 10 11 11 11 11 11 11 11 11 12 12 12 12 11 11 12 11 11 8 5 4 3 3 9 11 12 12 12 11
7 6 8 12 13 13 12 12 11 11 11 10 10 10 10 11 11 11 11 11 11 11 11 11 11 11 11 11 11 11 11 10 6 4 4 3 4 10 11 11 11 11 11
7 6 7 11 11 11 12 11 11 10 10 9 9 9 10 10 10 10 10 10 10 11 10 11 11 11 11 10 10 10 10 8 6 5 3 3 5 9 10 10 10 10 10
6 5 5 6 8 10 11 10 10 10 9 9 8 8 8 9 10 10 10 9 10 10 10 10 10 11 10 10 10 10 9 9 5 3 3 2 6 9 10 9 9 10 10
5 5 4 4 5 5 6 9 9 9 8 8 8 8 8 8 8 9 8 8 9 10 9 9 10 10 10 10 10 10 9 8 4 3 2 2 7 9 9 9 9 9 10
5 4 4 5 5 5 5 6 7 8 8 7 7 9 7 4 4 5 6 8 8 9 9 9 9 10 9 9 9 9 7 3 3 2 2 5 7 8 9 9 9 9 9
7 5 4 4 5 5 4 4 3 3 4 4 4 5 4 3 3 5 6 8 8 8 7 8 9 9 7 4 6 7 3 3 3 2 2 6 7 8 8 8 8 8 8
8 6 5 5 5 5 3 3 2 2 3 4 4 4 4 3 3 3 3 3 4 5 4 5 5 3 3 3 3 3 3 3 2 2 2 5 6 7 7 7 7 7 7
7 7 6 5 5 4 4 3 3 3 3 3 4 5 4 3 3 3 2 2 2 2 3 3 3 3 4 4 4 4 4 2 2 1 2 5 5 6 6 6 6 6 5
7 7 7 6 6 5 4 3 4 4 4 4 4 4 4 4 4 3 2 2 3 3 3 3 3 4 4 3 3 4 3 3 2 2 2 4 5 5 5 5 4 4 4
7 7 6 7 6 6 5 4 4 4 4 4 4 4 5 4 4 4 3 3 3 3 3 3 4 4 3 3 3 3 3 2 2 2 2 2 4 4 4 4 4 4 4
7 6 6 7 6 7 6 5 4 4 4 4 4 4 5 5 5 4 4 3 3 3 4 3 4 3 3 3 3 3 2 2 2 2 2 2 2 4 4 4 4 4 4
5 6 6 5 6 6 6 5 4 4 4 4 4 4 5 5 6 4 4 3 3 3 3 3 3 3 3 3 3 2 2 2 2 2 2 2 2 2 3 4 3 3 3
6 6 6 5 6 6 6 5 4 4 4 4 4 4 5 5 6 5 4 4 4 4 3 4 3 3 3 3 3 2 2 2 1 2 2 2 2 2 1 3 3 3 3
5 5 6 5 6 5 4 4 3 3 3 3 3 4 5 5 6 5 4 5 5 4 3 4 4 3 3 3 4 3 2 1 1 1 1 1 1 1 1 1 2 2 3
4 4 5 6 6 5 4 5 4 4 3 3 3 4 5 5 6 5 4 5 5 4 5 5 4 4 2 2 3 2 2 2 1 1 1 1 1 1 1 1 1 1 1
5 5 5 6 6 6 5 4 3 3 3 3 2 3 4 5 5 5 5 5 5 4 5 5 5 3 2 2 3 3 1 2 2 1 1 0 1 1 1 1 0 1 1
4 5 5 6 6 6 5 3 3 3 2 2 3 3 3 4 5 5 5 5 6 5 5 6 5 6 4 2 1 3 3 3 1 1 1 0 0 0 1 0 0 0 0
3 4 4 5 5 6 6 6 6 5 4 4 4 3 3 4 5 5 5 5 5 5 5 5 5 4 5 4 1 1 2 3 3 1 2 1 1 1 2 1 1 1 1
2 2 3 4 5 5 6 7 6 4 3 3 3 4 4 3 4 4 5 4 5 4 5 5 5 5 4 4 4 2 2 1 1 2 2 2 1 2 2 2 1 1 1
1 1 2 4 4 5 5 6 6 6 5 5 4 4 4 2 2 4 4 4 4 4 5 5 5 6 5 4 3 3 3 3 3 3 2 2 2 2 2 2 2 2 2
Wind_Direction
174 172 164 151 145 141 136 130 126 123 121 119 118 118 118 118 115 112 111 110 108 105 104 104 104 100 98 99 97 93 90 87 85 82 78 78 80 81 81 78 74 69 77
156 163 159 150 147 143 137 134 129 127 125 124 123 121 120 121 118 115 114 112 111 107 105 104 102 98 97 100 98 95 92 89 86 81 74 72 76 81 83 81 79 79 79
148 157 156 150 147 144 140 136 132 132 130 128 128 127 125 124 121 118 117 115 112 109 107 103 100 99 100 100 99 97 94 91 88 82 73 63 76 83 84 83 82 82 80
148 152 152 150 147 145 143 140 137 132 131 131 130 131 130 127 124 121 118 116 112 109 108 106 104 102 103 102 103 100 95 91 86 80 64 56 69 86 88 86 84 83 82
145 148 154 151 150 148 145 142 140 136 132 132 133 133 131 130 128 123 118 114 111 110 110 108 106 106 107 106 105 102 97 92 83 72 59 54 59 88 88 87 84 84 82
144 145 154 152 151 148 145 143 141 139 135 133 134 134 131 130 128 123 115 112 109 109 112 110 108 109 108 108 108 105 99 92 81 68 61 59 64 91 89 87 84 84 83
146 147 155 155 153 150 148 145 142 139 136 133 133 134 130 127 124 122 118 114 113 112 114 113 112 109 108 107 107 105 99 94 84 70 63 59 85 97 93 88 84 81 83
147 147 154 158 155 153 152 149 145 140 137 135 134 132 131 128 123 119 121 120 118 117 117 115 114 111 107 105 104 102 97 92 88 78 69 62 89 99 97 91 87 82 81
141 141 145 154 157 157 154 150 148 142 138 135 131 124 122 125 123 122 121 123 121 118 115 114 114 111 106 103 101 98 90 87 81 71 70 68 95 98 97 95 90 85 83
138 142 145 144 142 146 150 150 146 140 138 133 126 117 112 119 121 120 118 117 119 120 117 114 113 111 105 102 100 98 90 81 72 66 58 83 96 97 95 96 94 89 85
149 146 147 145 140 138 143 146 140 136 134 127 121 116 107 105 110 112 114 114 114 115 116 114 111 108 100 97 99 97 87 76 75 63 58 86 95 96 95 95 96 93 91
171 167 154 152 148 141 141 131 126 125 125 117 116 118 109 104 106 110 114 116 116 110 110 112 108 101 90 85 89 89 81 80 71 60 70 84 91 94 94 93 96 97 95
175 171 165 159 153 144 134 131 125 121 122 121 122 122 115 106 103 100 103 103 104 102 94 95 92 88 89 90 89 85 84 77 65 52 66 80 91 96 97 96 97 100 98
172 177 168 162 157 149 139 140 139 136 134 137 137 135 129 123 121 122 116 117 112 110 109 99 102 100 95 92 96 93 83 77 62 50 60 72 83 94 99 101 102 105 102
180 181 174 166 165 156 147 151 149 150 152 147 143 143 141 141 144 141 132 125 121 118 120 118 115 111 104 97 93 95 87 79 67 55 46 64 76 87 100 105 103 111 115
189 184 177 172 168 160 160 159 160 159 154 151 152 156 150 149 153 149 142 139 133 131 129 128 128 120 110 105 96 94 97 89 72 62 50 47 59 71 87 91 93 106 115
188 181 179 177 167 167 165 166 162 164 158 162 161 159 159 158 158 155 153 153 150 137 127 117 114 108 107 101 94 91 93 85 82 69 54 45 39 48 66 78 80 98 110
178 176 179 177 172 174 169 167 166 167 165 168 164 164 166 164 162 158 158 158 150 140 134 130 126 114 110 107 99 86 78 77 81 79 68 53 46 38 41 53 62 76 96
182 177 174 171 173 177 171 165 164 164 166 166 166 168 170 166 164 160 160 154 148 142 140 141 127 128 130 121 106 87 73 72 71 72 70 61 55 45 34 33 44 47 50
180 175 173 171 171 167 159 147 145 151 158 159 169 174 169 167 165 159 154 152 148 144 144 141 135 121 126 127 107 82 59 54 65 75 66 47 51 51 44 37 37 25 35
168 170 174 174 173 163 163 164 164 174 171 170 173 168 167 165 165 163 158 154 155 156 156 148 135 126 119 126 107 78 34 41 55 61 46 41 21 24 56 52 60 52 18
179 180 180 181 177 174 176 176 164 156 162 166 162 160 165 163 164 168 164 162 159 150 148 152 143 133 133 144 129 117 67 355 351 18 31 39 340 3 34 30 51 93 53
190 189 188 187 180 176 161 142 119 108 106 136 160 171 172 170 167 165 167 164 164 163 167 169 162 151 153 165 149 144 153 198 270 325 322 293 271 289 287 296 284 297 17
216 197 186 180 175 169 159 161 164 168 172 180 174 172 168 169 169 165 167 167 168 169 170 177 171 155 152 161 149 87 130 146 151 241 309 296 264 251 254 257 258 255 234
216 193 183 167 166 165 168 170 169 170 167 146 144 153 163 164 165 161 166 167 170 174 174 175 170 166 167 168 163 148 119 87 126 157 230 273 289 260 243 240 235 239 241
36 154 169 163 166 167 172 173 171 167 157 150 152 163 166 159 164 162 162 170 175 176 180 181 179 177 181 172 166 162 160 161 175 171 193 224 251 273 262 239 228 230 231